Regional Weather Roundup
Issued by NWS

Home | Current Version | Previous Version | Graphics & Text | Print | Product List | Glossary On
Versions: 1 2 3 4 5 6 7 8 9 10 11 12 13 14 15 16 17 18 19 20 21 22 23 24 25 26 27 28 29 30 31 32 33 34 35 36 37 38 39 40 41 42 43 44 45 46 47 48 49 50
223
ASUS43 KDMX 200206
RWRIA

WEATHER ROUNDUP FOR IOWA
NATIONAL WEATHER SERVICE DES MOINES IA
800 PM CST MON FEB 19 2018

NOTE: "FAIR" INDICATES FEW OR NO CLOUDS BELOW 12,000 FEET WITH NO
SIGNIFICANT WEATHER AND/OR OBSTRUCTIONS TO VISIBILITY.

* - THESE STATIONS ARE NOT NWS STATIONS...THUS NOT UNDER NWS
QUALITY CONTROL.  THEY ALSO DO NOT REPORT WEATHER SUCH
AS PRECIPITATION OR FOG.

IAZ001>003-012>014-020>022-031>034-043>046-200300-
   NORTHWEST IOWA

CITY           SKY/WX    TMP DP  RH WIND       PRES   REMARKS
CARROLL *      CLOUDY    23  23 100 MISG      29.82F FOG
CHEROKEE *     CLOUDY    20  20  96 N7        29.87R WCI  12
DENISON *      CLOUDY    21  21 100 N12       29.86R WCI   9
LE MARS *      CLOUDY    19  16  86 MISG      29.89S
ORANGE CITY *  CLOUDY    18  18 100 N8        29.87R WCI   7
SHELDON *      CLOUDY    16  16 100 MISG      29.84S
SIOUX CITY     CLOUDY    20  17  88 N10       29.90R WCI   9
SPENCER        MIX PCPN  19  16  88 N17G24    29.84F FOG     WCI   4
STORM LAKE *   CLOUDY    19  19 100 MISG      29.83S
$$

IAZ055>058-069>071-079>083-090>094-200300-
   SOUTHWEST IOWA

CITY           SKY/WX    TMP DP  RH WIND       PRES   REMARKS
ATLANTIC *     CLOUDY    25  25 100 NW8       29.85R WCI  16
AUDUBON *      CLOUDY    23  21  93 CALM      29.84S
CLARINDA *     CLOUDY    27  27 100 N13       29.88S WCI  16
COUNCIL BLFS * CLOUDY    21  23 100 N9        29.85F WCI  11
CRESTON *      CLOUDY    27  27 100 NW12      29.82F WCI  16
HARLAN  *      CLOUDY    23  23 100 N9        29.89R WCI  13
LAMONI         CLOUDY    30  28  92 NW9       29.81S WCI  22
RED OAK *      CLOUDY    25  25 100 N10       29.87S WCI  15
SHENANDOAH *     N/A     25  25 100 NW10      29.87F WCI  15
$$

IAZ047>049-059>061-072>074-084-200300-
   CENTRAL IOWA

CITY           SKY/WX    TMP DP  RH WIND       PRES   REMARKS
AMES           CLOUDY    29  28  96 NW10      29.81R FOG     WCI  20
ANKENY *       CLOUDY    28  28 100 W12       29.84R FOG     WCI  18
BOONE *        CLOUDY    27  27 100 MISG      29.80R FOG
CHARITON *     CLOUDY    30  30 100 NW8       29.81R FOG     WCI  23
DES MOINES     FRZ DRZL  29  27  92 W12       29.83R FOG     WCI  19
GRINNELL*      FOG       32  32  99 W10       29.79R VSB 3/4 WCI  24
KNOXVILLE *    FOG       30  30 100 W10       29.80S VSB 3/4 WCI  21
MARSHALLTOWN   CLOUDY    32  32 100 W10       29.77R FOG     WCI  24
NEWTON *       FOG       32  32 100 W12       29.80S VSB 3/4 WCI  23
PELLA *        FOG       32  31  98 W10       29.82R VSB 1   WCI  23
PERRY *        CLOUDY    27  27  99 NW12      29.83S FOG     WCI  16
$$

IAZ004>006-015-016-023>025-035-036-200300-
   NORTH CENTRAL IOWA

CITY           SKY/WX    TMP DP  RH WIND       PRES   REMARKS
ALGONA *       PTCLDY    25 N/A N/A MISG      29.80F HAZE
CLARION *      CLOUDY    28  28 100 N15       29.79S WCI  17
ESTHERVILLE    CLOUDY    18  17  96 N18       29.84S FOG     WCI   2
FORT DODGE *   CLOUDY    25  24  96 VRB6      29.82R FOG     WCI  18
MASON CITY     CLOUDY    27  25  92 N15       29.79R FOG     WCI  15
FOREST CITY *  CLOUDY    28  27  93 N7        29.79S FOG     WCI  21
WEBSTER CITY * CLOUDY    27  27 100 NW14      29.79R WCI  15
IOWA FALLS *   CLOUDY    32  32  99 NW10      29.78R FOG     WCI  24
$$

IAZ007>011-017>019-026>030-037>042-050>054-066-200300-
   NORTHEAST IOWA

CITY           SKY/WX    TMP DP  RH WIND       PRES   REMARKS
CEDAR RAPIDS   CLOUDY    38  37  97 W7        29.76R FOG     WCI  33
CHARLES CITY * CLOUDY    32  32 100 N12       29.75S FOG     WCI  23
CLINTON *      LGT RAIN  45  45 100 MISG        N/A  VSB 1/4
DECORAH *      FOG       36  36 100 CALM      29.72F VSB 1/4
DUBUQUE        MIX PCPN  36  35  96 SW6       29.72S VSB 1/2 WCI  31
MONTICELLO *   FOG       39  39 100 W3        29.74S VSB 1/4
OELWEIN *      FOG       34  34 100 SW6       29.73R VSB 1/4 WCI  29
WATERLOO       FOG       33  33 100 W7        29.74R VSB 3/4 WCI  27
$$

IAZ064-065-067-068-078-200300-
   EAST CENTRAL IOWA

CITY           SKY/WX    TMP DP  RH WIND       PRES   REMARKS
DAVENPORT      CLOUDY    50  48  93 W9        29.77S FOG
IOWA CITY      LGT RAIN  40  32  73 W8        29.79R WCI  34
MT. PLEASANT * DRIZZLE   41  41 100 NW5       29.77F
MUSCATINE *    CLOUDY    43  43 100 W16       29.78S FOG
QUAD CITIES    LGT RAIN  56  55  97 W12       29.74R FOG
$$

IAZ062-063-075>077-085>089-095>099-200300-
   SOUTHEAST IOWA

CITY           SKY/WX    TMP DP  RH WIND       PRES   REMARKS
BURLINGTON     RAIN      58  57  97 W8        29.74R FOG
FAIRFIELD *    CLOUDY    37  37 100 NW7       29.77S FOG     WCI  32
FORT MADISON * LGT RAIN  52  52 100 NW9       29.77R
KEOKUK *       LGT RAIN  59  59 100 W8        29.74R
OSKALOOSA *    CLOUDY    33  32  98 W12       29.80R FOG     WCI  24
OTTUMWA        CLOUDY    35  34  96 W13       29.79R FOG     WCI  26
WASHINGTON *   CLOUDY    37  37 100 W8        29.79R FOG     WCI  31
$$

ABBREVIATIONS USED IN REMARKS
   TC - TEMPERATURES IN CELSIUS
  WCI - WIND CHILL INDEX
   HX - HEAT INDEX
  VSB - VISIBILITY
$$





USA.gov is the U.S. government's official web portal to all federal, state and local government web resources and services.